Location: Newark
(35.7833°N, 139.8000°E)
Time: 08:53:10
(UTC+00:00)

OTV 5 (USA 277) - Pass Details

Date: 01 October 2019
Orbit: 310 x 324 km, 54.5° (Epoch: 08 October)

Event Time Altitude Azimuth Distance (km) Brightness Sun altitude
Exits shadow 18:44:04 20° 109° (ESE) 819 ? -23.3°
Drops below altitude 10° 18:45:43 10° 74° (ENE) 1,235 ? -23.0°
Sets 18:47:56 0° 58° (ENE) 2,069 ? -22.6°
